Simultaneous Nadir Overpasses (SNOs) Predictions

Prediction of SNOs between GOES-16 and FY3D Satellite Orbit:

Table of predicted SNOs for the next 14.0 days since TLE Epoch: 4/29/2023
Index Date Time (GOES-16) GOES-16 Lat,Lon FY3D Lat,Lon Distance(km) Time Diff (sec)
1 04/30/2023 07:11:26 -0.02, -75.19 0.28, -76.52 151.96 80
2 05/01/2023 06:50:22 -0.02, -75.19 -0.72, -72.06 356.40 80
3 05/02/2023 19:15:32 0.01, -75.20 -0.49, -77.48 260.00 80
4 05/03/2023 18:54:28 0.02, -75.20 0.51, -73.02 248.72 80
5 05/05/2023 07:19:28 -0.01, -75.22 0.71, -78.39 361.81 80
6 05/06/2023 06:58:24 -0.01, -75.23 -0.30, -73.94 146.95 80
7 05/07/2023 19:23:33 0.01, -75.23 -0.90, -79.35 469.19 80
8 05/08/2023 19:02:30 0.01, -75.24 0.11, -74.90 39.72 80
9 05/11/2023 07:09:05 -0.01, -75.27 0.14, -75.80 61.67 80
10 05/12/2023 06:48:01 -0.01, -75.28 -0.87, -71.35 447.72 80
